Find Starlink 3072

NORAD ID: 49153 Int'l Des: 2021-082 Owner: SPXS Country: US Constellation: starlink operational
LEOCIRCULAR

Live-Position

3D-Globus wird geladen...

Über Starlink 3072

Beschreibung wird geladen...

Nächste Überflüge

Passes for default location (London). Set your location on the main map for personalized predictions.

Höhenverlauf

Loading altitude history...

Zweizeiliger Elementsatz

1 49153U 21082Z 26121.70839245 -.00000037 00000-0 47361-5 0 9992
2 49153 69.9989 120.7771 0003315 270.6460 89.4319 14.98331026256112
Epoch: 1. Mai 2026 • Age: 8 hours

Aktueller Status

Höhe 586.1 km
Geschwindigkeit 7.57 km/s
Subsatellitenpunkt -42.40°S, 131.44°W
Startdatum 14. Sept. 2021
Alter 4.6 years
Typ internet

Technische Details

Klassifizierung Payload
Masse 297.00 kg
Trockenmasse 275.00 kg
Gesamtmasse 297.00 kg
Länge 0.20 m
Durchmesser 2.80 m
Spannweite 9.00 m
Form Box + pan
Hersteller SPXS
Bus-Typ Starlink
Phasenstatus In Orbit
Besitzer/Staat SPXS/US

Most Searched